Location: Broletto
(44.6000°N, 10.5833°E)
Time: 07:39:44
(UTC+00:00)

Cosmos 2074 Rocket - Pass Details

Date: 18 April 2021
Orbit: 968 x 986 km, 82.9° (Epoch: 06 May)

Event Time Altitude Azimuth Distance (km) Brightness Sun altitude
Rises 23:35:56 0° 350° (N) 3,685 8.0 -34.1°
Reaches altitude 10° 23:38:27 10° 350° (N) 2,736 7.1 -34.0°
Enters shadow 23:43:22 57° 338° (NNW) 1,142 4.4 -33.9°
